Location: Willingham
(52.3167°N, 0.0667°E)
Time: 17:11:18
(UTC+00:00)

Cosmos 2082 Rocket - Pass Details

Date: 19 May 2025
Orbit: 832 x 853 km, 71.0° (Epoch: 12 June)

Event Time Altitude Azimuth Distance (km) Brightness Sun altitude
Exits shadow 21:42:05 16° 161° (SSE) 2,068 3.6 -12.0°
Maximum altitude 21:45:51 33° 106° (ESE) 1,385 3.0 -12.3°
Drops below altitude 10° 21:50:47 10° 45° (NE) 2,458 4.8 -12.7°
Sets 21:53:27 0° 36° (NE) 3,399 5.7 -12.9°
